McAlester, OK

9:33 AM CST on November 12, 2019 (GMT -0600)
McAlester Regional

Weather History for KMLC - August, 2019

Change the Weather History Date:

Sunday, August 18, 2019

  Actual Average Record
Temperature  
Mean Temperature 88 °F -  
Max Temperature 98 °F 92 °F 105 °F (1956)
Min Temperature 80 °F 70 °F 60 °F (2013)
Cooling Degree Days 24    
Growing Degree Days 38 (Base 50)    
Moisture  
Dew Point 71 °F    
Average Humidity 60    
Maximum Humidity 79    
Minimum Humidity 40    
Precipitation  
Precipitation 0.00 in - - ()
Sea Level Pressure  
Sea Level Pressure 29.84 in    
Wind  
Wind Speed 7 mph (South)    
Max Wind Speed 13 mph    
Max Gust Speed 23 mph    
Visibility 10 miles    
Events Rain , Thunderstorm    
Averages and records for this station are not official NWS values.
T = Trace of Precipitation, MM = Missing Value Source: NWS Daily Summary

Daily Weather History Graph

Daily Weather History Graph

Search for Another Location

Airport or City:

Astronomy

Aug. 18, 2019 Rise Set
Actual Time 6:45 AM CDT 8:07 PM CDT
Civil Twilight 6:18 AM CDT 8:34 PM CDT
Nautical Twilight 5:47 AM CDT 9:06 PM CDT
Astronomical Twilight 5:13 AM CDT 9:39 PM CDT
Moon 10:09 PM CDT (8/18) 9:26 AM CDT (8/18)
Length of Visible Light 14h 15m
Length of Day
13h 22m
Waning Gibbous, 91% of the Moon is Illuminated
Aug 18
Waning Gibbous
Aug 23
Last Quarter
Aug 30
New
Sep 5
First Quarter
Sep 13
Full

Hourly Weather History & Observations

Time (CDT) Temp. Heat Index Dew Point Humidity Pressure Visibility Wind Dir Wind Speed Gust Speed Precip Events Conditions
12:53 AM 84.9 °F 90.1 °F 71.1 °F 63% 29.82 in 10.0 mi Variable 5.8 mph - N/A   Clear
1:53 AM 84.9 °F 90.7 °F 72.0 °F 65% 29.79 in 10.0 mi South 9.2 mph 16.1 mph N/A   Clear
2:53 AM 84.0 °F 89.6 °F 72.0 °F 67% 29.80 in 10.0 mi South 12.7 mph 20.7 mph N/A   Clear
3:53 AM 82.9 °F 88.0 °F 72.0 °F 69% 29.81 in 10.0 mi South 6.9 mph - N/A   Partly Cloudy
4:53 AM 81.0 °F 85.8 °F 73.0 °F 77% 29.77 in 10.0 mi SE 9.2 mph 17.3 mph N/A   Partly Cloudy
5:53 AM 81.0 °F 85.8 °F 73.0 °F 77% 29.80 in 10.0 mi Variable 5.8 mph - N/A   Clear
6:53 AM 80.1 °F 84.2 °F 73.0 °F 79% 29.83 in 10.0 mi South 3.5 mph - N/A   Clear
7:53 AM 81.0 °F 85.8 °F 73.0 °F 77% 29.86 in 10.0 mi Variable 6.9 mph - N/A   Clear
8:53 AM 82.9 °F 89.4 °F 73.9 °F 74% 29.86 in 10.0 mi South 5.8 mph - N/A   Clear
9:53 AM 84.9 °F 90.7 °F 72.0 °F 65% 29.87 in 10.0 mi South 10.4 mph 23.0 mph N/A   Clear
10:53 AM 87.1 °F 93.6 °F 72.0 °F 61% 29.90 in 10.0 mi SSW 9.2 mph - N/A   Partly Cloudy
11:53 AM 93.0 °F 101.9 °F 73.0 °F 52% 29.91 in 10.0 mi Variable 4.6 mph - N/A   Clear
12:48 PM 89.6 °F 98.2 °F 73.4 °F 59% 29.94 in 10.0 mi Calm Calm - 0.00 in Rain , Thunderstorm Light Thunderstorms and Rain
1:04 PM 89.1 °F 99.1 °F 75.0 °F 63% 29.92 in 10.0 mi NNE 6.9 mph - 0.00 in Rain Light Rain
1:53 PM 91.9 °F 99.5 °F 72.0 °F 52% 29.86 in 10.0 mi Variable 5.8 mph - 0.00 in   Clear
2:53 PM 93.9 °F 100.3 °F 70.0 °F 46% 29.83 in 10.0 mi South 6.9 mph 18.4 mph N/A   Clear
3:53 PM 97.0 °F 102.8 °F 69.1 °F 40% 29.82 in 10.0 mi South 11.5 mph 18.4 mph N/A   Clear
4:53 PM 96.1 °F 102.9 °F 70.0 °F 43% 29.83 in 10.0 mi SSE 9.2 mph 19.6 mph N/A   Clear
5:53 PM 96.1 °F 101.6 °F 69.1 °F 41% 29.81 in 10.0 mi South 9.2 mph 18.4 mph N/A   Clear
6:53 PM 93.9 °F 99.1 °F 69.1 °F 44% 29.81 in 10.0 mi South 9.2 mph - N/A   Clear
7:53 PM 91.0 °F 95.6 °F 69.1 °F 48% 29.82 in 10.0 mi SSE 5.8 mph - N/A   Clear
8:53 PM 87.1 °F 92.0 °F 70.0 °F 57% 29.83 in 10.0 mi SSE 6.9 mph - N/A   Clear
9:53 PM 87.1 °F 92.0 °F 70.0 °F 57% 29.86 in 10.0 mi SSE 5.8 mph - N/A   Clear
10:53 PM 84.0 °F 88.4 °F 70.0 °F 63% 29.88 in 10.0 mi SE 4.6 mph - N/A   Clear
11:53 PM 84.9 °F 88.8 °F 69.1 °F 59% 29.88 in 10.0 mi South 3.5 mph - N/A   Partly Cloudy